Wind_Speed
15 14 13 11 11 10 9 7 6 5 3 2 2 3 3 3 2 3 4 5 6 7 8 9 10 10 10 8 8 7 6 4 3 4 5 5 5 5 5 6 6 6 6 6
17 16 15 13 12 11 10 8 8 6 5 4 4 4 4 3 3 3 4 5 6 7 8 9 10 10 9 9 9 8 7 6 5 5 6 7 6 5 5 6 7 7 6 7
20 18 17 15 13 12 11 11 10 8 6 5 5 5 4 4 4 4 5 6 7 8 8 9 10 10 10 9 9 9 8 7 6 6 6 7 7 5 6 6 7 7 8 8
23 20 19 17 15 14 13 13 11 9 7 7 5 5 7 5 5 5 6 7 8 8 9 9 10 11 10 10 10 10 10 9 7 6 6 6 7 7 6 6 7 7 8 9
24 22 20 19 18 16 16 14 12 10 9 8 7 5 7 7 6 6 7 7 7 8 8 9 10 11 11 11 11 11 11 10 9 8 8 8 7 8 8 8 8 8 9 10
26 23 22 21 20 18 17 15 13 12 10 10 10 7 7 8 7 8 8 7 8 8 8 10 11 12 12 12 11 11 12 11 10 9 8 9 9 9 9 9 9 10 10 10
27 25 24 22 21 20 18 16 14 13 12 12 11 9 9 9 8 9 9 9 8 9 9 10 11 13 13 12 11 10 11 10 9 9 8 8 9 9 9 10 10 11 11 12
28 27 26 24 23 21 19 18 16 14 12 13 13 11 10 9 9 9 9 9 10 10 11 11 12 13 13 12 11 10 11 10 9 8 8 8 9 10 10 11 11 12 12 13
29 29 27 26 25 23 22 20 18 16 15 13 14 12 11 10 10 10 10 10 11 11 12 12 13 12 13 12 10 10 10 10 9 9 9 9 9 10 11 12 12 13 13 14
31 30 29 27 27 26 24 22 21 18 16 14 14 12 11 11 11 11 10 11 11 12 12 13 12 12 13 12 10 10 10 10 9 10 10 10 10 11 12 13 14 14 14 14
31 31 30 29 28 26 25 23 21 19 18 15 13 13 13 13 12 11 11 11 12 12 12 13 13 13 12 12 11 10 11 11 10 11 11 11 12 12 13 13 13 14 14 15
30 30 30 29 29 27 26 24 23 21 20 17 15 15 15 14 13 12 12 12 13 12 13 13 13 13 12 12 11 11 11 11 10 11 12 12 13 13 13 13 13 13 14 15
30 30 30 29 29 28 27 26 23 21 20 20 16 16 17 15 14 14 14 13 13 13 13 12 12 12 12 12 11 11 10 10 10 11 12 13 13 13 13 13 13 14 15 15
31 30 28 26 26 27 27 26 24 23 22 21 18 17 17 16 16 15 15 14 14 14 13 13 13 12 12 12 12 11 11 11 11 11 12 13 12 12 12 13 13 14 15 16
30 29 29 29 29 28 27 26 26 25 23 21 19 18 17 17 16 16 15 15 14 14 14 13 13 12 12 12 12 12 11 11 11 12 13 13 13 12 13 13 14 15 16 17
29 28 28 29 29 28 27 28 27 26 24 22 21 19 18 17 16 15 15 15 14 14 14 14 13 13 13 13 12 12 11 12 12 13 14 14 15 15 15 15 16 16 17 17
29 28 28 27 27 28 29 28 26 25 23 22 21 19 18 17 16 16 16 15 15 14 15 15 15 15 14 14 14 14 13 14 14 15 15 15 16 16 16 17 17 18 18 18
29 28 27 27 28 28 27 26 25 24 23 22 21 20 19 18 18 17 17 16 16 16 16 16 16 16 16 16 16 16 16 16 16 16 17 17 16 17 18 18 18 18 18 19
30 29 29 28 27 27 28 26 25 24 23 23 22 21 20 19 19 18 18 17 17 17 17 17 17 17 17 17 16 16 17 17 17 17 17 17 18 18 18 18 18 18 19 19
31 31 30 30 28 26 27 26 25 24 24 23 23 22 21 21 21 20 20 19 19 19 18 18 18 18 17 17 17 17 17 18 18 18 18 19 19 19 19 19 19 20 20 20
33 32 32 30 28 27 28 25 25 26 25 24 23 23 22 22 22 22 22 21 20 20 20 20 19 18 18 18 18 18 19 19 19 20 20 20 20 21 21 21 21 22 22 22
34 33 33 31 29 30 28 26 27 26 26 25 25 24 24 23 23 23 22 22 22 22 21 20 20 20 20 20 20 20 20 21 21 20 21 21 22 22 22 22 22 23 23 23
36 36 35 34 32 31 28 27 27 27 27 26 26 25 25 25 24 24 24 23 23 22 22 21 22 22 22 21 21 21 22 22 22 21 22 22 23 23 23 23 23 23 23 23
37 36 35 34 33 31 29 29 28 28 27 27 27 26 26 26 25 25 24 24 23 23 22 22 22 23 23 23 22 22 23 23 23 22 23 23 23 23 23 24 23 23 22 22
38 36 36 35 34 32 32 31 29 29 29 28 27 27 27 26 26 25 24 24 24 24 24 24 23 23 24 24 23 23 23 23 22 22 23 23 23 24 24 23 23 23 22 22
38 38 37 37 35 34 33 32 31 31 30 29 28 27 26 26 26 25 25 25 25 25 25 25 25 25 24 24 24 23 23 22 22 23 23 23 23 23 24 23 23 22 22 22
Wind_Direction
225 224 224 223 220 219 225 231 244 255 263 264 273 298 311 317 330 338 336 334 337 342 341 342 342 344 343 345 341 336 333 314 299 276 273 278 270 260 246 243 242 242 242 232
225 225 225 226 227 228 229 237 248 258 260 265 278 294 292 306 312 313 312 314 317 327 330 332 335 337 341 340 336 333 331 320 303 292 281 276 269 259 247 244 243 243 244 239
227 227 228 228 229 230 232 236 244 254 263 265 277 293 287 293 300 301 303 306 308 314 317 322 326 331 329 327 326 327 330 321 306 296 290 275 264 262 251 248 248 249 249 247
227 227 228 229 230 231 234 238 245 253 257 260 255 263 288 291 296 298 297 298 301 311 313 317 322 328 325 318 319 322 320 313 308 303 304 291 263 255 255 253 256 258 257 255
229 228 229 229 231 232 234 237 242 249 250 252 257 249 272 283 291 297 299 300 299 308 313 317 321 324 324 318 310 310 311 307 303 294 291 285 274 261 260 259 259 264 264 260
229 228 229 229 232 233 234 237 242 248 250 251 255 253 263 272 281 286 294 297 299 305 312 318 321 324 321 320 311 306 309 305 301 291 283 279 272 268 269 266 266 270 268 262
230 229 229 230 232 232 232 234 239 244 248 251 258 257 258 267 272 276 283 290 292 300 309 316 319 322 322 318 314 308 308 303 297 292 282 277 271 268 269 269 271 271 268 266
231 231 230 230 231 233 232 232 231 235 246 254 259 258 261 266 272 275 279 286 289 295 304 307 313 316 319 315 312 309 309 303 296 292 283 278 272 271 270 268 269 270 269 272
229 231 230 230 231 231 232 231 229 236 239 242 255 259 261 265 270 273 278 284 287 291 300 302 307 312 314 314 309 308 310 304 291 288 285 281 275 271 271 268 269 269 272 274
227 229 230 229 230 231 232 233 233 233 238 242 254 259 261 263 265 269 276 282 284 288 293 297 303 309 310 310 307 302 306 303 294 287 285 281 276 273 271 273 275 275 275 277
225 227 229 228 229 232 232 233 234 234 236 238 251 260 260 262 264 267 271 276 282 286 290 295 299 303 305 307 307 302 300 299 292 286 284 280 274 274 275 277 276 275 275 277
223 224 228 229 230 231 232 233 235 236 241 240 241 256 263 261 263 266 269 272 277 283 288 291 295 297 301 305 304 304 302 301 295 290 289 287 280 275 276 276 277 280 279 277
222 223 226 229 231 231 232 234 235 238 243 244 242 253 260 259 260 263 267 270 272 280 284 289 292 293 299 303 303 300 300 299 298 297 295 295 289 281 279 278 281 285 284 281
222 223 224 229 235 235 234 235 235 237 240 246 245 246 256 256 259 261 264 267 269 277 281 284 290 292 296 300 302 300 297 296 297 299 298 299 296 289 285 285 286 287 287 285
221 223 223 224 231 233 234 235 236 238 240 242 247 249 251 253 256 259 261 264 267 273 280 282 287 292 295 298 297 297 295 296 295 298 298 299 297 295 292 292 294 293 289 288
221 222 223 226 230 232 232 233 235 238 240 242 244 246 247 250 252 256 258 261 266 272 275 279 284 290 291 293 290 290 291 293 295 298 299 298 296 295 296 297 298 297 297 294
222 222 223 226 229 230 232 232 234 236 239 242 242 243 245 247 247 251 253 257 262 268 270 274 282 287 287 288 285 285 289 291 293 295 296 297 296 295 295 296 297 298 298 295
221 220 221 224 227 229 231 232 233 235 237 238 239 242 243 244 245 247 249 254 259 263 266 271 280 286 286 287 285 283 286 288 290 292 294 294 294 295 295 294 296 298 298 296
221 220 220 222 227 231 232 230 231 233 236 237 240 242 241 242 245 246 247 251 255 260 264 270 276 280 282 285 287 285 285 287 288 290 292 292 294 295 295 295 296 297 298 298
223 222 223 224 225 231 234 229 229 232 235 238 240 241 241 241 244 246 248 252 255 259 264 269 273 275 278 282 283 284 286 287 287 288 290 290 293 294 294 295 296 297 298 299
223 223 225 226 227 231 231 227 227 230 233 235 238 240 241 242 244 247 250 253 257 260 263 267 270 272 274 278 282 284 286 287 286 286 287 289 291 293 294 295 296 297 298 298
224 226 226 227 229 234 229 228 229 230 233 235 238 240 243 244 245 247 250 252 257 260 261 264 267 270 273 277 280 282 283 285 285 283 285 287 290 292 293 294 295 296 297 298
224 225 226 227 229 232 231 231 232 233 236 237 239 242 244 245 246 248 251 253 255 256 257 261 265 268 271 274 278 280 282 284 285 285 285 288 290 291 293 294 295 295 296 296
225 226 228 230 231 232 232 232 234 236 238 240 242 245 246 246 247 249 250 251 253 255 257 261 263 267 270 272 276 279 280 283 285 285 285 287 289 290 292 294 295 296 296 296
225 226 228 231 232 233 234 236 237 238 240 242 243 245 246 246 248 249 249 251 253 255 257 260 262 265 268 270 273 276 278 280 282 284 286 288 289 291 293 295 295 296 296 296
226 227 228 230 232 234 236 237 238 239 241 242 244 245 246 247 247 248 249 251 254 256 257 260 261 264 267 268 270 274 276 278 280 283 286 288 290 291 293 294 295 295 297 297
Height
5907 5911 5912 5915 5916 5919 5920 5922 5923 5923 5923 5924 5924 5924 5923 5922 5921 5920 5919 5918 5917 5915 5914 5913 5911 5910 5908 5906 5905 5903 5902 5902 5901 5900 5900 5900 5900 5900 5900 5900 5901 5901 5901 5902
5905 5908 5910 5911 5914 5916 5917 5919 5921 5921 5922 5923 5923 5923 5923 5922 5921 5920 5919 5918 5917 5915 5914 5912 5911 5909 5908 5906 5905 5903 5902 5901 5900 5899 5899 5899 5899 5898 5899 5899 5899 5899 5900 5900
5901 5905 5906 5909 5911 5913 5915 5917 5918 5919 5920 5921 5922 5922 5922 5921 5920 5919 5918 5917 5916 5915 5913 5912 5910 5908 5907 5905 5903 5902 5901 5900 5899 5898 5897 5897 5897 5897 5897 5898 5898 5898 5898 5899
5897 5900 5903 5906 5908 5910 5912 5914 5916 5917 5919 5920 5921 5924 5921 5920 5919 5918 5917 5916 5915 5914 5913 5911 5909 5907 5906 5904 5902 5901 5900 5899 5897 5896 5896 5895 5896 5896 5896 5896 5896 5896 5896 5897
5893 5897 5900 5902 5905 5907 5910 5911 5913 5915 5917 5919 5919 5921 5922 5918 5918 5917 5916 5915 5914 5913 5912 5910 5908 5907 5905 5903 5901 5900 5898 5897 5896 5895 5894 5894 5894 5894 5894 5894 5895 5895 5895 5895
5889 5893 5896 5899 5901 5904 5906 5909 5910 5912 5915 5917 5917 5918 5919 5917 5916 5915 5914 5914 5913 5912 5911 5909 5907 5905 5903 5901 5899 5898 5896 5895 5894 5893 5893 5892 5892 5892 5892 5892 5893 5893 5893 5893
5884 5888 5891 5894 5897 5900 5903 5906 5909 5911 5913 5915 5914 5915 5916 5914 5914 5913 5913 5912 5911 5910 5909 5908 5906 5904 5902 5900 5898 5896 5895 5893 5892 5891 5891 5890 5890 5890 5890 5890 5891 5891 5891 5891
5880 5884 5887 5890 5893 5896 5900 5903 5908 5911 5913 5913 5911 5912 5913 5912 5911 5911 5910 5910 5909 5909 5908 5906 5905 5903 5900 5898 5896 5895 5893 5891 5890 5889 5889 5888 5888 5888 5888 5888 5888 5888 5888 5889
5875 5879 5882 5886 5889 5892 5895 5898 5903 5906 5907 5909 5909 5909 5909 5909 5909 5908 5908 5908 5907 5906 5905 5904 5902 5900 5898 5896 5894 5893 5892 5890 5888 5888 5887 5886 5886 5886 5886 5885 5885 5885 5886 5886
5869 5873 5877 5880 5884 5887 5891 5894 5897 5901 5903 5906 5906 5906 5907 5906 5906 5906 5905 5905 5904 5904 5903 5901 5900 5898 5896 5894 5892 5891 5890 5888 5887 5886 5885 5884 5883 5883 5883 5883 5882 5882 5882 5882
5864 5868 5872 5875 5879 5883 5887 5890 5893 5896 5899 5902 5905 5906 5903 5903 5903 5903 5903 5902 5902 5901 5900 5898 5897 5895 5894 5892 5890 5889 5888 5887 5885 5884 5883 5882 5881 5881 5880 5880 5879 5879 5879 5879
5858 5863 5866 5870 5874 5878 5881 5885 5888 5892 5894 5897 5900 5904 5898 5899 5899 5899 5899 5899 5899 5898 5897 5896 5894 5893 5891 5889 5888 5887 5886 5884 5883 5882 5881 5880 5878 5878 5877 5876 5876 5875 5875 5874
5852 5857 5861 5865 5870 5873 5876 5879 5883 5887 5890 5892 5895 5900 5895 5895 5896 5896 5896 5896 5896 5895 5894 5893 5892 5890 5889 5887 5886 5884 5883 5882 5881 5880 5879 5878 5876 5875 5874 5873 5873 5872 5871 5871
5847 5852 5858 5863 5864 5867 5871 5874 5878 5882 5885 5887 5890 5893 5891 5891 5892 5892 5892 5892 5892 5892 5891 5890 5889 5888 5887 5885 5884 5882 5881 5880 5879 5878 5877 5875 5874 5872 5871 5871 5870 5869 5868 5867
5841 5846 5851 5855 5857 5861 5865 5869 5872 5876 5879 5883 5885 5886 5887 5887 5888 5888 5889 5889 5889 5889 5888 5887 5887 5886 5884 5883 5881 5880 5879 5878 5877 5876 5874 5873 5872 5870 5869 5868 5866 5865 5864 5863
5835 5840 5845 5849 5852 5856 5859 5863 5866 5870 5873 5876 5879 5881 5882 5883 5884 5884 5885 5885 5886 5886 5885 5885 5884 5883 5882 5880 5879 5878 5877 5876 5875 5873 5872 5870 5869 5867 5866 5865 5863 5862 5861 5859
5830 5835 5840 5844 5847 5850 5854 5858 5861 5865 5868 5871 5874 5877 5877 5878 5880 5880 5881 5881 5882 5882 5882 5881 5881 5880 5879 5877 5876 5875 5874 5873 5872 5871 5869 5868 5866 5864 5863 5862 5860 5859 5857 5855
5825 5830 5834 5839 5842 5845 5851 5852 5856 5860 5862 5865 5868 5870 5872 5873 5875 5876 5877 5877 5878 5878 5878 5877 5877 5876 5875 5874 5873 5872 5871 5870 5869 5868 5866 5865 5863 5861 5860 5858 5857 5855 5853 5851
5819 5824 5828 5833 5836 5840 5844 5847 5851 5854 5857 5860 5862 5865 5866 5868 5870 5871 5872 5873 5873 5874 5874 5873 5873 5872 5871 5870 5869 5869 5868 5867 5865 5864 5863 5861 5860 5858 5857 5855 5853 5851 5849 5847
5812 5817 5823 5827 5831 5835 5839 5841 5845 5850 5851 5854 5856 5859 5861 5863 5865 5867 5867 5868 5868 5869 5869 5869 5868 5868 5867 5866 5865 5865 5864 5863 5861 5860 5859 5857 5856 5854 5853 5851 5849 5847 5844 5842
5805 5810 5815 5820 5825 5829 5831 5835 5840 5844 5847 5848 5850 5853 5855 5857 5859 5861 5861 5862 5863 5864 5864 5864 5863 5863 5863 5862 5861 5860 5859 5858 5857 5856 5855 5853 5851 5850 5848 5846 5844 5842 5840 5838
5799 5803 5808 5813 5818 5823 5825 5829 5833 5837 5839 5842 5844 5847 5849 5851 5853 5854 5855 5857 5857 5858 5858 5858 5858 5858 5858 5857 5857 5856 5855 5854 5852 5851 5850 5848 5847 5845 5843 5841 5839 5837 5835 5833
5790 5796 5800 5806 5811 5814 5818 5822 5826 5830 5833 5835 5838 5840 5843 5845 5846 5848 5849 5850 5851 5852 5852 5853 5853 5853 5852 5852 5851 5850 5850 5848 5847 5846 5845 5843 5842 5840 5838 5836 5834 5832 5829 5827
5782 5788 5793 5798 5802 5807 5811 5815 5819 5822 5825 5828 5831 5834 5836 5838 5840 5841 5843 5844 5845 5846 5846 5847 5847 5847 5847 5846 5845 5845 5844 5843 5842 5841 5840 5838 5836 5835 5833 5831 5828 5826 5824 5821
5774 5780 5785 5790 5795 5799 5803 5807 5811 5815 5818 5821 5824 5826 5828 5830 5832 5834 5836 5837 5838 5839 5840 5840 5840 5841 5840 5840 5840 5839 5838 5837 5836 5835 5834 5832 5831 5829 5827 5825 5823 5821 5819 5816
5766 5772 5777 5782 5787 5792 5796 5800 5803 5807 5810 5813 5816 5818 5820 5823 5825 5826 5828 5830 5831 5832 5833 5833 5833 5834 5834 5834 5834 5833 5832 5831 5831 5829 5828 5827 5825 5823 5821 5819 5817 5815 5813 5811